sat.trackr.live / text

‹ back to catalog

PAYLOAD B

NORAD 49113 · 2021-076B

PAYLOAD ACTIVE UNKNOWN

§ Identity

Operator
Country
PRC
Launch date
2021-08-24
Launch site
JSC
Launch vehicle
Mass (kg)
RCS (m²)

External: N2YO · Heavens-Above · Gunter

§ Orbital elements

Epoch: 2026-09-20T21:50:36.655008Z

Period
102.16 min
Inclination
86.4028°
Eccentricity
0.0017053
Mean motion
14.09486527 rev/d
Perigee alt
848.8 km
Apogee alt
873.5 km
Semi-major
7,239.3 km
B*
8.3718e-5
RAAN
44.6397°
Arg perigee
267.6496°
Mean anomaly
92.2733°
Rev number
26,091

§ Raw data

PAYLOAD B1 49113U 21076B   26263.91014647  .00000165  00000+0  83718-4 0  99972 49113  86.4028  44.6397 0017053 267.6496  92.2733 14.09486527260917

JSON: /api/v1/satellites/49113 · /tle

For live sub-satellite position, see the globe view (requires WebGL).

§ Visibility from observer

Set your observer location to see the next 7 days of passes ≥ 10°. The values pass through the URL so the page stays shareable.

No JS? Fill the form by hand. The geolocation button needs JavaScript.